Home > Weather > Tula > Past weeks

Flag for Russia Weather for the Past 2 Weeks in Tula, Russia

Now
57 °F

Passing clouds.


Feels Like: 57 °F
Forecast: 42 / 65 °F
Wind: 3 mph from Northeast

Location: Moscow / Domodedovo

Current Time: May 2, 2016 at 8:59:31 AM

Latest Report: May 2, 2016 at 8:00 AM


Visibility: N/A

Pressure: 30.18 "Hg

Humidity: 41%

Dew Point: 34 °F

Location of TulaLocation

Historic Weather in Tula — Graph

°F

Tula Temperature Yesterday

Maximum temperature yesterday: 63 °F (at 12:30 PM)
Minimum temperature yesterday: 36 °F (at 3:00 AM)
Average temperature yesterday: 51 °F

High & Low Weather Summary for the Past Weeks

 TemperatureHumidityPressure
High63 °F (Apr 18, 12:00 PM)100% (Apr 21, 1:00 AM)30.24 "Hg (Apr 21, 1:00 AM)
Low30 °F (Apr 21, 2:00 AM)20% (May 1, 12:00 PM)29.47 "Hg (Apr 22, 9:30 PM)
Average49 °F65%29.90 "Hg
* Reported Apr 17 7:30 AM — May 2 7:30 AM, Tula, Weather by CustomWeather, © 2016

Note: Actual official high and low records may vary slightly from our data, if they occured in-between our weather recording intervals... More about our weather records

Advertising

Tula Weather History for the Previous 24 Hours

Scroll right to see more
 ConditionsComfort  
Time TempWeatherWind HumidityBarometerVisibility
7:30 AM
Mon, May 2
55 °FSunny.No wind47%30.18 "Hg10 mi
7:00 AM48 °FSunny.No wind82%30.18 "Hg10 mi
6:30 AM43 °FSunny.1 mph81%30.18 "Hg10 mi
6:00 AM41 °FSunny.1 mph76%30.18 "Hg10 mi
5:30 AM37 °FSunny.No wind81%30.18 "Hg10 mi
4:30 AM36 °FClear.No wind87%30.18 "Hg10 mi
4:00 AM39 °FClear.No wind75%30.18 "Hg10 mi
3:30 AM41 °FClear.1 mph70%30.18 "Hg10 mi
2:30 AM39 °FClear.1 mph75%30.18 "Hg10 mi
2:00 AM41 °FClear.1 mph70%30.18 "Hg10 mi
1:30 AM41 °FClear.No wind70%30.18 "Hg10 mi
1:00 AM41 °FClear.1 mph70%30.18 "Hg10 mi
12:30 AM45 °FPassing clouds.3 mph57%30.18 "HgN/A
12:00 AM43 °FClear.6 mph71%30.18 "Hg10 mi
11:30 PM
Sun, May 1
45 °FClear.6 mph61%30.18 "Hg10 mi
11:00 PM45 °FPassing clouds.6 mph61%30.18 "HgN/A
10:30 PM46 °FPassing clouds.3 mph62%30.18 "HgN/A
10:00 PM48 °FClear.6 mph58%30.18 "Hg10 mi
9:30 PM48 °FClear.3 mph58%30.18 "Hg10 mi
9:00 PM50 °FClear.6 mph54%30.18 "Hg10 mi
8:30 PM52 °FClear.3 mph47%30.18 "Hg10 mi
8:00 PM54 °FSunny.3 mph51%30.15 "Hg10 mi
7:30 PM55 °FPassing clouds.3 mph38%30.15 "HgN/A
7:00 PM55 °FSunny.3 mph47%30.15 "Hg10 mi
6:30 PM59 °FSunny.3 mph31%30.15 "Hg10 mi
6:00 PM59 °FSunny.3 mph27%30.15 "Hg10 mi
5:30 PM61 °FPassing clouds.8 mph27%30.15 "HgN/A
5:00 PM61 °FSunny.8 mph27%30.15 "Hg10 mi
4:30 PM61 °FPassing clouds.6 mph23%30.18 "HgN/A
4:00 PM61 °FPassing clouds.8 mph23%30.18 "HgN/A
3:30 PM61 °FPassing clouds.8 mph25%30.18 "HgN/A
3:00 PM61 °FPassing clouds.8 mph25%30.18 "HgN/A
2:30 PM61 °FPassing clouds.10 mph25%30.21 "HgN/A
2:00 PM59 °FSunny.17 mph27%30.21 "Hg10 mi
1:30 PM61 °FPassing clouds.13 mph25%30.21 "HgN/A
1:00 PM61 °FPassing clouds.13 mph20%30.21 "HgN/A
12:30 PM63 °FPassing clouds.10 mph20%30.21 "HgN/A
12:00 PM61 °FPassing clouds.8 mph20%30.24 "HgN/A
11:30 AM59 °FSunny.10 mph23%30.24 "Hg10 mi
11:00 AM59 °FPassing clouds.8 mph25%30.24 "HgN/A
10:00 AM57 °FPassing clouds.13 mph29%30.24 "HgN/A
9:30 AM57 °FPassing clouds.10 mph31%30.24 "HgN/A
9:00 AM55 °FSunny.10 mph36%30.24 "Hg10 mi
8:30 AM54 °FPassing clouds.8 mph41%30.24 "HgN/A
Weather by CustomWeather, © 2016

See weather overviewHow to use our weather pages